This is the latest recevied weather packets stored in our database for station/object KC5DAQ-26. If no packets are shown the sender has not sent any weather packets the latest 10 day(s).
| Time | Temp. | Humidity | Pressure | Rain* | Wind** | Luminosity | Snow |
|---|---|---|---|---|---|---|---|
| 1788180364 | 25.56° C | 95% | 1019 hPa | 0 mm | - | 81 W/m² | - |
| 1788180303 | 25.56° C | 95% | 1019 hPa | 0 mm | - | 77 W/m² | - |
| 1788180244 | 25.56° C | 95% | 1018.8 hPa | 0 mm | - | 77 W/m² | - |
| 1788180183 | 25.56° C | 95% | 1018.8 hPa | 0 mm | - | 76 W/m² | - |
| 1788180122 | 25.56° C | 95% | 1018.8 hPa | 0 mm | - | 72 W/m² | - |
| 1788180063 | 25.56° C | 95% | 1018.8 hPa | 0 mm | - | 70 W/m² | - |
| 1788180002 | 25.56° C | 95% | 1018.8 hPa | 0 mm | - | 65 W/m² | - |
| 1788179942 | 25.56° C | 96% | 1018.8 hPa | 0 mm | - | 63 W/m² | - |
| 1788179883 | 25.56° C | 96% | 1018.7 hPa | 0 mm | - | 60 W/m² | - |
| 1788179823 | 25.56° C | 96% | 1018.7 hPa | 0 mm | - | 58 W/m² | - |
| 1788179763 | 25.56° C | 96% | 1018.7 hPa | 0 mm | - | 56 W/m² | - |
| 1788179703 | 25.56° C | 96% | 1018.8 hPa | 0 mm | - | 53 W/m² | - |
| 1788179643 | 25.56° C | 96% | 1018.8 hPa | 0 mm | - | 48 W/m² | - |
| 1788179581 | 25.56° C | 96% | 1018.8 hPa | 0 mm | - | 46 W/m² | - |
| 1788179522 | 25.56° C | 96% | 1018.7 hPa | 0 mm | - | 44 W/m² | - |
| 1788179464 | 25.56° C | 96% | 1018.8 hPa | 0 mm | - | 42 W/m² | - |
| 1788179403 | 25° C | 95% | 1018.9 hPa | 0 mm | - | 41 W/m² | - |
| 1788179342 | 25° C | 95% | 1018.8 hPa | 0 mm | - | 39 W/m² | - |
| 1788179283 | 25° C | 95% | 1018.8 hPa | 0 mm | - | 33 W/m² | - |
| 1788179223 | 25° C | 95% | 1018.8 hPa | 0 mm | - | 33 W/m² | - |
| 1788179162 | 25° C | 95% | 1018.9 hPa | 0 mm | - | 30 W/m² | - |
| 1788179105 | 25° C | 95% | 1018.8 hPa | 0 mm | - | 30 W/m² | - |
| 1788179044 | 25° C | 95% | 1018.8 hPa | 0 mm | - | 28 W/m² | - |
| 1788178982 | 25° C | 95% | 1018.8 hPa | 0 mm | - | 26 W/m² | - |
| 1788178922 | 25° C | 95% | 1018.7 hPa | 0 mm | - | 21 W/m² | - |
* Rain latest hour (hover to see other rain measurements)
** Current wind speed in m/s (hover to see current wind gust speed)